Location: Unspecified
(0.0000°N, 0.0000°E)
Time: 19:00:32
(UTC+00:00)

Vanguard 2 Rocket - Pass Details

Date: 27 January 2020
Orbit: 554 x 3327 km, 32.9° (Epoch: 20 February)

Event Time Altitude Azimuth Distance (km) Brightness Sun altitude
Rises 19:21:15 0° 225° (SW) 7,107 12.7 -16.2°
Reaches altitude 10° 19:29:46 10° 206° (SSW) 5,647 11.5 -18.2°
Maximum altitude 19:38:08 16° 175° (S) 4,541 10.6 -20.2°
Drops below altitude 10° 19:44:46 10° 142° (SE) 4,351 10.2 -21.8°
Enters shadow 19:48:24 - 126° (SE) 4,626 10.2 -22.6°
Sets 19:49:43 0° 120° (ESE) 4,792 - -22.9°
